Location: Grange Rosano
(44.4500°N, 6.9667°E)
Time: 19:18:11
(UTC+00:00)

ADEOS Rocket - Pass Details

Date: 26 May 2022
Orbit: 859 x 1305 km, 98.8° (Epoch: 01 July)

Event Time Altitude Azimuth Distance (km) Brightness Sun altitude
Exits shadow 00:42:16 20° 261° (W) 1,946 4.3 -22.4°
Maximum altitude 00:42:57 20° 270° (W) 1,935 4.4 -22.3°
Drops below altitude 10° 00:47:12 10° 317° (NW) 2,653 5.6 -22.1°
Sets 00:50:26 0° 334° (NNW) 3,672 6.7 -21.9°
